Location: Bieg
(49.3499°N, 10.3835°E)
Time: 10:32:10
(UTC+00:00)

Cosmos 2221 Rocket - Pass Details

Date: 23 May 2024
Orbit: 617 x 646 km, 82.5° (Epoch: 21 June)

Event Time Altitude Azimuth Distance (km) Brightness Sun altitude
Exits shadow 02:28:29 - 187° (S) 2,579 6.3 -7.9°
Reaches altitude 10° 02:29:49 10° 188° (S) 2,041 5.7 -7.8°
Maximum altitude 02:34:22 88° 99° (E) 653 3.7 -7.2°
Drops below altitude 10° 02:38:56 10° 10° (N) 2,049 7.1 -6.7°
Sets 02:41:11 0° 11° (N) 2,960 8.0 -6.4°
